Location: Molveno
(46.1500°N, 10.9667°E)
Time: 08:13:33
(UTC+00:00)

Cosmos 2058 - Pass Details

Date: 05 July 2020
Orbit: 561 x 584 km, 82.5° (Epoch: 05 August)

Event Time Altitude Azimuth Distance (km) Brightness Sun altitude
Exits shadow 21:24:59 32° 143° (SE) 1,000 3.6 -16.3°
Maximum altitude 21:26:25 46° 94° (E) 782 3.3 -16.4°
Drops below altitude 10° 21:30:24 10° 21° (NNE) 1,887 6.1 -16.8°
Sets 21:32:39 0° 15° (NNE) 2,786 7.2 -16.9°
